{"data":{"norad_id":62626,"intl_designator":"2025-009T","name":"MBZ-SAT","alt_names":[],"object_type":"PAYLOAD","status":"ACTIVE","operator":null,"country":"UAE","launch_date":"2025-01-14","launch_site_code":"AFWTR","launch_vehicle":null,"mission":null,"orbit_class":"UNKNOWN","rcs_meters":null,"size_class":null,"mass_kg":null,"dimensions":null,"purposes":[],"wikipedia_slug":null,"has_3d_model":false,"image_url":null,"decayed_at":null,"tle_current":{"epoch":"2026-09-22T17:40:13.442880Z","epoch_age_seconds":124526,"freshness":"FRESH","line1":"1 62626U 25009T   26265.73626670  .00001048  00000+0  55066-4 0  9994","line2":"2 62626  97.3870 341.7675 0003499  17.1070 343.0281 15.17822674 93480","mean_motion":15.17822674,"eccentricity":0.0003499,"inclination_deg":97.387,"raan_deg":341.7675,"arg_perigee_deg":17.107,"mean_anomaly_deg":343.0281,"bstar":5.5066e-5,"rev_number":9348,"period_min":94.872742690363,"perigee_km":510.01143960686,"apogee_km":514.83345310742,"semimajor_km":6890.5594463571,"source":"CELESTRAK","updated_at":"2026-09-23T09:00:21.532099Z"}}}